| time (UTC) | temp C | wind direction | speed KPH | gust KPH | rain 1hr cm | rain 24hr cm | rain mn cm | humidity % | barometer mb |
| 20260505021528 | 16 | 343 | 11.3 | 24.1 | 0.00 | 0.00 | 0.00 | 61 | 1018.3 |
| 20260505020517 | 16 | 329 | 8.0 | 24.1 | 0.00 | 0.00 | 0.00 | 62 | 1018.5 |
| 20260505015527 | 16 | 346 | 9.7 | 20.9 | 0.00 | 0.00 | 0.00 | 64 | 1018.7 |
| 20260505014536 | 16 | 339 | 9.7 | 17.7 | 0.00 | 0.00 | 0.00 | 63 | 1018.7 |
| 20260505013524 | 16 | 329 | 8.0 | 20.9 | 0.00 | 0.00 | 0.00 | 64 | 1018.7 |
| 20260505012534 | 16 | 4 | 8.0 | 20.9 | 0.00 | 0.00 | 0.00 | 64 | 1018.9 |
| 20260505011521 | 16 | 340 | 11.3 | 24.1 | 0.00 | 0.00 | 0.00 | 64 | 1018.8 |
| 20260505010537 | 16 | 343 | 8.0 | 17.7 | 0.00 | 0.00 | 0.00 | 62 | 1018.8 |
| 20260505005519 | 15 | 340 | 12.9 | 20.9 | 0.00 | 0.00 | 0.00 | 63 | 1018.8 |
| 20260505004526 | 15 | 341 | 8.0 | 17.7 | 0.00 | 0.00 | 0.00 | 64 | 1018.8 |
| 20260505003536 | 15 | 343 | 9.7 | 19.3 | 0.00 | 0.00 | 0.00 | 63 | 1018.8 |
| 20260505002524 | 15 | 316 | 9.7 | 17.7 | 0.00 | 0.00 | 0.00 | 63 | 1018.7 |
| 20260505001534 | 15 | 334 | 12.9 | 20.9 | 0.00 | 0.00 | 0.00 | 63 | 1018.5 |
| 20260505000522 | 15 | 312 | 8.0 | 19.3 | 0.00 | 0.00 | 0.00 | 65 | 1018.5 |
| 20260504235532 | 15 | 303 | 11.3 | 17.7 | 0.00 | 0.00 | 0.00 | 67 | 1018.4 |
| 20260504234520 | 15 | 314 | 8.0 | 19.3 | 0.00 | 0.00 | 0.00 | 69 | 1018.4 |
| 20260504233542 | 15 | 323 | 9.7 | 19.3 | 0.00 | 0.00 | 0.00 | 71 | 1018.2 |
| 20260504232517 | 14 | 323 | 9.7 | 17.7 | 0.00 | 0.00 | 0.00 | 73 | 1018.3 |
| 20260504231525 | 14 | 313 | 12.9 | 24.1 | 0.00 | 0.00 | 0.00 | 76 | 1018.0 |
| 20260504230534 | 13 | 311 | 8.0 | 17.7 | 0.00 | 0.00 | 0.00 | 81 | 1018.2 |
| 20260504225524 | 13 | 312 | 8.0 | 16.1 | 0.00 | 0.00 | 0.00 | 77 | 1018.2 |
| 20260504224532 | 13 | 322 | 8.0 | 20.9 | 0.00 | 0.00 | 0.00 | 83 | 1018.4 |
| 20260504223520 | 13 | 339 | 8.0 | 17.7 | 0.00 | 0.00 | 0.00 | 82 | 1018.5 |
| 20260504222529 | 13 | 333 | 4.8 | 9.7 | 0.00 | 0.00 | 0.00 | 80 | 1018.5 |
| 20260504221531 | 12 | 337 | 3.2 | 8.0 | 0.00 | 0.00 | 0.00 | 82 | 1018.4 |
| 20260504220526 | 12 | 342 | 3.2 | 9.7 | 0.00 | 0.00 | 0.00 | 81 | 1018.2 |
| 20260504215536 | 12 | 320 | 4.8 | 9.7 | 0.00 | 0.00 | 0.00 | 81 | 1017.9 |
| 20260504214523 | 12 | 325 | 3.2 | 6.4 | 0.00 | 0.00 | 0.00 | 82 | 1017.9 |
| 20260504213532 | 12 | 311 | 1.6 | 4.8 | 0.00 | 0.00 | 0.00 | 83 | 1017.7 |
| 20260504212521 | 11 | 337 | 3.2 | 8.0 | 0.00 | 0.00 | 0.00 | 85 | 1017.5 |
| 20260504211537 | 11 | 197 | 1.6 | 6.4 | 0.00 | 0.00 | 0.00 | 86 | 1017.4 |
| 20260504210518 | 11 | 76 | 3.2 | 4.8 | 0.00 | 0.00 | 0.00 | 87 | 1017.3 |
| 20260504205527 | 11 | 120 | 1.6 | 3.2 | 0.00 | 0.00 | 0.00 | 83 | 1017.2 |
| 20260504204517 | 12 | 288 | 4.8 | 9.7 | 0.00 | 0.00 | 0.00 | 82 | 1016.9 |
| 20260504203525 | 12 | 275 | 4.8 | 11.3 | 0.00 | 0.00 | 0.00 | 81 | 1016.9 |
| 20260504202535 | 12 | 268 | 4.8 | 8.0 | 0.00 | 0.00 | 0.00 | 81 | 1016.8 |
| 20260504201523 | 12 | 277 | 4.8 | 8.0 | 0.00 | 0.00 | 0.00 | 81 | 1016.6 |
| 20260504200548 | 12 | 274 | 6.4 | 9.7 | 0.00 | 0.00 | 0.00 | 80 | 1016.4 |
| 20260504195521 | 12 | 279 | 9.7 | 16.1 | 0.00 | 0.00 | 0.00 | 81 | 1016.3 |
| 20260504194530 | 12 | 276 | 8.0 | 14.5 | 0.00 | 0.00 | 0.00 | 81 | 1016.2 |
| 20260504193519 | 12 | 273 | 8.0 | 11.3 | 0.00 | 0.00 | 0.00 | 81 | 1016.0 |
| 20260504192528 | 12 | 278 | 6.4 | 9.7 | 0.00 | 0.00 | 0.00 | 81 | 1015.7 |
| 20260504191543 | 12 | 275 | 6.4 | 14.5 | 0.00 | 0.00 | 0.00 | 81 | 1015.6 |
| 20260504190525 | 12 | 310 | 11.3 | 20.9 | 0.00 | 0.00 | 0.00 | 80 | 1015.6 |
| 20260504185535 | 12 | 287 | 8.0 | 14.5 | 0.00 | 0.00 | 0.00 | 80 | 1015.3 |
| 20260504184523 | 12 | 301 | 9.7 | 16.1 | 0.00 | 0.00 | 0.00 | 81 | 1015.3 |
| 20260504183537 | 12 | 291 | 8.0 | 16.1 | 0.00 | 0.00 | 0.00 | 81 | 1015.1 |
| 20260504182520 | 12 | 294 | 8.0 | 17.7 | 0.00 | 0.00 | 0.00 | 81 | 1015.1 |
| 20260504181529 | 12 | 298 | 8.0 | 14.5 | 0.00 | 0.00 | 0.00 | 81 | 1015.1 |
| 20260504180517 | 12 | 290 | 8.0 | 11.3 | 0.00 | 0.00 | 0.00 | 82 | 1015.2 |
| 20260504175526 | 12 | 295 | 8.0 | 17.7 | 0.00 | 0.00 | 0.00 | 82 | 1015.1 |
| 20260504174536 | 12 | 303 | 9.7 | 16.1 | 0.00 | 0.00 | 0.00 | 82 | 1015.3 |
| 20260504173522 | 12 | 299 | 9.7 | 16.1 | 0.00 | 0.00 | 0.00 | 81 | 1015.0 |
| 20260504172532 | 12 | 290 | 9.7 | 16.1 | 0.00 | 0.00 | 0.00 | 82 | 1014.9 |
| 20260504171529 | 12 | 292 | 8.0 | 19.3 | 0.00 | 0.00 | 0.00 | 82 | 1015.0 |
| 20260504170530 | 12 | 301 | 9.7 | 16.1 | 0.00 | 0.00 | 0.00 | 83 | 1015.1 |